| time (UTC) | temp F | wind direction | speed MPH | gust MPH | rain 1hr in | rain 24hr in | rain mn in | humidity % | barometer mb |
| 20260905002330 | 42 | 108 | 2.0 | 1.0 | 0.00 | 0.21 | 0.25 | 88 | 1012.5 |
| 20260905001831 | 42 | 75 | 1.0 | 1.0 | 0.00 | 0.21 | 0.25 | 88 | 1012.4 |
| 20260905001329 | 43 | 129 | 2.0 | 0.0 | 0.00 | 0.21 | 0.25 | 88 | 1012.4 |
| 20260905000830 | 43 | 42 | 2.0 | 2.0 | 0.00 | 0.21 | 0.25 | 88 | 1012.4 |
| 20260905000333 | 43 | 73 | 1.0 | 0.0 | 0.00 | 0.21 | 0.25 | 88 | 1012.4 |
| 20260904235832 | 43 | 87 | 1.0 | 1.0 | 0.00 | 0.21 | 0.25 | 88 | 1012.5 |
| 20260904235333 | 44 | 103 | 1.0 | 2.0 | 0.00 | 0.21 | 0.25 | 86 | 1012.5 |
| 20260904234831 | 44 | 165 | 3.0 | 1.0 | 0.00 | 0.21 | 0.25 | 85 | 1012.4 |
| 20260904234332 | 45 | 66 | 2.0 | 2.0 | 0.00 | 0.21 | 0.25 | 87 | 1012.4 |
| 20260904233833 | 46 | 87 | 2.0 | 2.0 | 0.00 | 0.21 | 0.25 | 81 | 1012.4 |
| 20260904233334 | 47 | 294 | 0.0 | 0.0 | 0.00 | 0.21 | 0.25 | 79 | 1012.2 |
| 20260904232835 | 47 | 177 | 0.0 | 1.0 | 0.00 | 0.21 | 0.25 | 76 | 1012.0 |
| 20260904232333 | 47 | 217 | 0.0 | 0.0 | 0.00 | 0.21 | 0.25 | 76 | 1011.8 |
| 20260904231335 | 47 | 188 | 0.0 | 0.0 | 0.00 | 0.21 | 0.25 | 76 | 1011.9 |
| 20260904230836 | 48 | 253 | 1.0 | 4.0 | 0.00 | 0.21 | 0.25 | 76 | 1011.9 |
| 20260904230337 | 48 | 181 | 2.0 | 3.0 | 0.00 | 0.21 | 0.25 | 74 | 1011.8 |
| 20260904225835 | 48 | 239 | 1.0 | 3.0 | 0.00 | 0.21 | 0.25 | 74 | 1011.8 |
| 20260904225336 | 48 | 203 | 2.0 | 1.0 | 0.00 | 0.21 | 0.25 | 71 | 1011.8 |
| 20260904224338 | 49 | 257 | 0.0 | 1.0 | 0.00 | 0.21 | 0.25 | 72 | 1011.7 |
| 20260904223839 | 49 | 253 | 0.0 | 1.0 | 0.00 | 0.21 | 0.25 | 71 | 1011.8 |
| 20260904223337 | 49 | 146 | 3.0 | 1.0 | 0.00 | 0.21 | 0.25 | 71 | 1011.8 |
| 20260904222839 | 49 | 229 | 1.0 | 1.0 | 0.00 | 0.21 | 0.25 | 76 | 1011.8 |
| 20260904222339 | 49 | 250 | 2.0 | 0.0 | 0.00 | 0.21 | 0.25 | 75 | 1011.9 |
| 20260904221841 | 49 | 219 | 2.0 | 1.0 | 0.00 | 0.21 | 0.25 | 74 | 1011.9 |
| 20260904221342 | 50 | 278 | 3.0 | 3.0 | 0.00 | 0.21 | 0.25 | 73 | 1011.7 |
| 20260904220341 | 50 | 274 | 5.0 | 2.0 | 0.00 | 0.21 | 0.25 | 73 | 1011.7 |
| 20260904215842 | 51 | 235 | 4.0 | 4.0 | 0.00 | 0.21 | 0.25 | 77 | 1011.7 |
| 20260904215343 | 50 | 240 | 4.0 | 1.0 | 0.03 | 0.21 | 0.25 | 77 | 1011.5 |
| 20260904214844 | 50 | 226 | 3.0 | 0.0 | 0.03 | 0.21 | 0.25 | 75 | 1011.4 |
| 20260904214342 | 50 | 293 | 1.0 | 3.0 | 0.03 | 0.21 | 0.25 | 77 | 1011.4 |
| 20260904213843 | 49 | 259 | 0.0 | 0.0 | 0.03 | 0.21 | 0.25 | 80 | 1011.3 |
| 20260904213344 | 49 | 291 | 1.0 | 2.0 | 0.03 | 0.21 | 0.25 | 79 | 1011.3 |
| 20260904212846 | 49 | 267 | 4.0 | 5.0 | 0.03 | 0.21 | 0.25 | 79 | 1011.3 |
| 20260904212346 | 49 | 211 | 3.0 | 1.0 | 0.03 | 0.21 | 0.25 | 79 | 1011.2 |
| 20260904211845 | 48 | 236 | 2.0 | 1.0 | 0.03 | 0.21 | 0.25 | 79 | 1011.1 |
| 20260904211346 | 48 | 68 | 0.0 | 0.0 | 0.03 | 0.21 | 0.25 | 82 | 1011.1 |
| 20260904210847 | 47 | 68 | 1.0 | 0.0 | 0.03 | 0.21 | 0.25 | 80 | 1010.9 |
| 20260904210348 | 47 | 105 | 2.0 | 1.0 | 0.03 | 0.21 | 0.25 | 82 | 1011.1 |
| 20260904205849 | 47 | 79 | 0.0 | 0.0 | 0.03 | 0.21 | 0.25 | 82 | 1010.9 |
| 20260904205347 | 47 | 79 | 0.0 | 0.0 | 0.06 | 0.21 | 0.25 | 80 | 1011.1 |
| 20260904204848 | 47 | 208 | 3.0 | 1.0 | 0.06 | 0.21 | 0.25 | 81 | 1010.9 |
| 20260904204349 | 47 | 242 | 1.0 | 1.0 | 0.06 | 0.21 | 0.25 | 83 | 1010.8 |
| 20260904203850 | 46 | 211 | 2.0 | 0.0 | 0.06 | 0.21 | 0.25 | 83 | 1010.8 |
| 20260904203351 | 46 | 115 | 1.0 | 0.0 | 0.06 | 0.21 | 0.25 | 85 | 1010.7 |
| 20260904202849 | 45 | 118 | 2.0 | 1.0 | 0.06 | 0.21 | 0.25 | 88 | 1010.7 |
| 20260904202350 | 45 | 39 | 3.0 | 2.0 | 0.06 | 0.21 | 0.25 | 90 | 1010.8 |
| 20260904201851 | 44 | 31 | 0.0 | 0.0 | 0.06 | 0.21 | 0.25 | 90 | 1010.8 |
| 20260904201352 | 44 | 21 | 0.0 | 0.0 | 0.06 | 0.21 | 0.25 | 91 | 1010.9 |
| 20260904200853 | 44 | 21 | 0.0 | 0.0 | 0.06 | 0.21 | 0.25 | 89 | 1010.9 |
| 20260904200351 | 44 | 221 | 0.0 | 0.0 | 0.06 | 0.21 | 0.24 | 90 | 1011.1 |
| 20260904195852 | 44 | 221 | 0.0 | 0.0 | 0.06 | 0.21 | 0.23 | 92 | 1011.1 |
| 20260904195353 | 44 | 211 | 0.0 | 0.0 | 0.00 | 0.21 | 0.21 | 91 | 1010.9 |
| 20260904194854 | 44 | 298 | 2.0 | 0.0 | 0.00 | 0.21 | 0.21 | 89 | 1010.7 |
| 20260904194354 | 44 | 115 | 0.0 | 3.0 | 0.00 | 0.21 | 0.21 | 94 | 1010.8 |
| 20260904193853 | 43 | 145 | 0.0 | 0.0 | 0.00 | 0.21 | 0.21 | 96 | 1010.9 |
| 20260904193353 | 42 | 145 | 0.0 | 0.0 | 0.00 | 0.21 | 0.21 | 90 | 1010.9 |
| 20260904192854 | 43 | 145 | 0.0 | 0.0 | 0.00 | 0.21 | 0.19 | 89 | 1011.1 |
| 20260904192355 | 43 | 145 | 0.0 | 0.0 | 0.00 | 0.21 | 0.17 | 89 | 1010.9 |
| 20260904191856 | 43 | 145 | 0.0 | 0.0 | 0.00 | 0.21 | 0.17 | 88 | 1010.9 |
| 20260904191354 | 43 | 145 | 0.0 | 0.0 | 0.00 | 0.21 | 0.17 | 89 | 1010.9 |
| 20260904190855 | 43 | 145 | 0.0 | 0.0 | 0.00 | 0.21 | 0.16 | 88 | 1010.9 |
| 20260904190356 | 43 | 110 | 2.0 | 2.0 | 0.00 | 0.21 | 0.16 | 88 | 1010.9 |
| 20260904185857 | 43 | 138 | 0.0 | 0.0 | 0.00 | 0.21 | 0.16 | 87 | 1011.1 |
| 20260904185358 | 43 | 70 | 2.0 | 0.0 | 0.00 | 0.21 | 0.16 | 87 | 1011.1 |
| 20260904184856 | 43 | 97 | 4.0 | 5.0 | 0.00 | 0.21 | 0.16 | 87 | 1010.9 |
| 20260904184357 | 43 | 23 | 1.0 | 1.0 | 0.00 | 0.21 | 0.16 | 92 | 1010.9 |
| 20260904183858 | 43 | 240 | 3.0 | 4.0 | 0.00 | 0.21 | 0.16 | 90 | 1010.7 |
| 20260904183359 | 43 | 174 | 3.0 | 2.0 | 0.00 | 0.21 | 0.16 | 89 | 1010.7 |
| 20260904182859 | 43 | 127 | 2.0 | 6.0 | 0.00 | 0.21 | 0.16 | 90 | 1010.8 |
| 20260904182357 | 43 | 58 | 0.0 | 4.0 | 0.00 | 0.21 | 0.16 | 89 | 1010.7 |
| 20260904181858 | 44 | 217 | 2.0 | 0.0 | 0.00 | 0.21 | 0.16 | 89 | 1010.7 |
| 20260904181359 | 43 | 37 | 1.0 | 0.0 | 0.00 | 0.21 | 0.16 | 88 | 1010.6 |
| 20260904180900 | 43 | 226 | 0.0 | 0.0 | 0.00 | 0.21 | 0.16 | 88 | 1010.6 |
| 20260904180401 | 43 | 134 | 0.0 | 0.0 | 0.00 | 0.21 | 0.16 | 89 | 1010.6 |
| 20260904175859 | 43 | 211 | 1.0 | 2.0 | 0.00 | 0.21 | 0.16 | 89 | 1010.6 |
| 20260904175400 | 43 | 173 | 1.0 | 0.0 | 0.00 | 0.21 | 0.16 | 88 | 1010.5 |
| 20260904174901 | 42 | 200 | 0.0 | 0.0 | 0.00 | 0.21 | 0.16 | 89 | 1010.5 |
| 20260904174402 | 43 | 166 | 1.0 | 1.0 | 0.00 | 0.21 | 0.16 | 89 | 1010.5 |
| 20260904173902 | 43 | 229 | 2.0 | 1.0 | 0.00 | 0.21 | 0.16 | 86 | 1010.3 |
| 20260904173400 | 43 | 107 | 0.0 | 0.0 | 0.00 | 0.21 | 0.16 | 87 | 1010.2 |
| 20260904172901 | 43 | 107 | 0.0 | 0.0 | 0.00 | 0.21 | 0.16 | 86 | 1010.2 |
| 20260904172402 | 43 | 107 | 0.0 | 0.0 | 0.00 | 0.21 | 0.16 | 83 | 1010.1 |
| 20260904171903 | 43 | 107 | 0.0 | 0.0 | 0.00 | 0.21 | 0.16 | 87 | 1010.1 |
| 20260904171403 | 43 | 107 | 0.0 | 0.0 | 0.00 | 0.21 | 0.16 | 84 | 1010.0 |
| 20260904170902 | 43 | 107 | 1.0 | 0.0 | 0.00 | 0.21 | 0.16 | 87 | 1010.0 |
| 20260904170402 | 43 | 84 | 0.0 | 0.0 | 0.00 | 0.21 | 0.16 | 88 | 1009.9 |
| 20260904165903 | 43 | 101 | 0.0 | 0.0 | 0.00 | 0.21 | 0.16 | 89 | 1009.9 |
| 20260904165404 | 42 | 101 | 0.0 | 0.0 | 0.01 | 0.21 | 0.16 | 90 | 1009.9 |
| 20260904164905 | 42 | 101 | 0.0 | 0.0 | 0.01 | 0.21 | 0.16 | 92 | 1009.9 |
| 20260904164403 | 42 | 101 | 0.0 | 0.0 | 0.01 | 0.21 | 0.16 | 91 | 1009.9 |
| 20260904163903 | 42 | 101 | 0.0 | 0.0 | 0.01 | 0.21 | 0.16 | 91 | 1009.8 |
| 20260904163404 | 42 | 101 | 0.0 | 0.0 | 0.01 | 0.21 | 0.16 | 92 | 1009.8 |
| 20260904162905 | 41 | 101 | 0.0 | 0.0 | 0.01 | 0.21 | 0.16 | 91 | 1009.8 |
| 20260904162406 | 41 | 101 | 1.0 | 0.0 | 0.01 | 0.21 | 0.16 | 89 | 1009.6 |
| 20260904161904 | 41 | 14 | 0.0 | 0.0 | 0.01 | 0.21 | 0.16 | 90 | 1009.5 |
| 20260904161405 | 41 | 215 | 0.0 | 0.0 | 0.01 | 0.21 | 0.16 | 93 | 1009.5 |
| 20260904160906 | 41 | 215 | 0.0 | 0.0 | 0.01 | 0.21 | 0.16 | 94 | 1009.5 |
| 20260904160407 | 40 | 215 | 0.0 | 0.0 | 0.01 | 0.21 | 0.16 | 95 | 1009.5 |
| 20260904155907 | 40 | 215 | 0.0 | 0.0 | 0.01 | 0.21 | 0.16 | 95 | 1009.5 |
| 20260904155405 | 40 | 215 | 0.0 | 0.0 | 0.02 | 0.21 | 0.16 | 95 | 1009.6 |
| 20260904154906 | 40 | 215 | 0.0 | 0.0 | 0.02 | 0.21 | 0.16 | 96 | 1009.6 |
| 20260904154407 | 40 | 215 | 0.0 | 0.0 | 0.02 | 0.21 | 0.16 | 97 | 1009.8 |
| 20260904153908 | 40 | 215 | 0.0 | 0.0 | 0.02 | 0.21 | 0.16 | 97 | 1009.6 |
| 20260904153409 | 39 | 215 | 0.0 | 0.0 | 0.02 | 0.21 | 0.16 | 97 | 1009.6 |
| 20260904152907 | 39 | 215 | 0.0 | 0.0 | 0.02 | 0.21 | 0.16 | 97 | 1009.6 |
| 20260904152408 | 39 | 215 | 0.0 | 0.0 | 0.02 | 0.21 | 0.16 | 97 | 1009.5 |
| 20260904151908 | 38 | 215 | 0.0 | 0.0 | 0.02 | 0.21 | 0.16 | 97 | 1009.5 |
| 20260904151409 | 38 | 215 | 0.0 | 0.0 | 0.02 | 0.21 | 0.16 | 97 | 1009.4 |
| 20260904150910 | 38 | 215 | 0.0 | 0.0 | 0.02 | 0.21 | 0.16 | 97 | 1009.4 |
| 20260904150408 | 38 | 215 | 0.0 | 0.0 | 0.02 | 0.21 | 0.16 | 97 | 1009.4 |
| 20260904145909 | 38 | 215 | 0.0 | 0.0 | 0.02 | 0.21 | 0.15 | 97 | 1009.3 |
| 20260904145410 | 38 | 215 | 0.0 | 0.0 | 0.00 | 0.21 | 0.15 | 97 | 1009.3 |
| 20260904144911 | 38 | 215 | 0.0 | 0.0 | 0.00 | 0.21 | 0.14 | 97 | 1009.3 |
| 20260904144412 | 38 | 215 | 0.0 | 0.0 | 0.00 | 0.21 | 0.13 | 97 | 1009.3 |
| 20260904143910 | 38 | 215 | 0.0 | 0.0 | 0.00 | 0.21 | 0.13 | 97 | 1009.2 |
| 20260904143410 | 38 | 215 | 0.0 | 0.0 | 0.00 | 0.21 | 0.13 | 97 | 1009.2 |
| 20260904142911 | 38 | 215 | 0.0 | 0.0 | 0.00 | 0.21 | 0.13 | 97 | 1008.9 |
| 20260904142412 | 38 | 215 | 0.0 | 0.0 | 0.00 | 0.21 | 0.13 | 97 | 1008.9 |
| 20260904141913 | 38 | 215 | 0.0 | 0.0 | 0.00 | 0.21 | 0.13 | 97 | 1008.9 |
| 20260904141411 | 38 | 215 | 0.0 | 0.0 | 0.00 | 0.21 | 0.13 | 97 | 1008.8 |
| 20260904140911 | 38 | 215 | 0.0 | 0.0 | 0.00 | 0.21 | 0.13 | 97 | 1008.8 |
| 20260904140412 | 37 | 215 | 0.0 | 0.0 | 0.00 | 0.21 | 0.13 | 97 | 1008.7 |
| 20260904135913 | 37 | 215 | 0.0 | 0.0 | 0.00 | 0.21 | 0.13 | 97 | 1008.6 |
| 20260904135414 | 37 | 215 | 0.0 | 0.0 | 0.06 | 0.21 | 0.13 | 97 | 1008.6 |
| 20260904134912 | 37 | 215 | 0.0 | 0.0 | 0.06 | 0.21 | 0.13 | 96 | 1008.6 |
| 20260904134413 | 37 | 215 | 0.0 | 0.0 | 0.06 | 0.21 | 0.13 | 96 | 1008.6 |
| 20260904133914 | 37 | 215 | 0.0 | 0.0 | 0.06 | 0.21 | 0.13 | 96 | 1008.5 |
| 20260904133414 | 37 | 215 | 0.0 | 0.0 | 0.06 | 0.21 | 0.13 | 96 | 1008.5 |
| 20260904132413 | 37 | 215 | 0.0 | 0.0 | 0.06 | 0.21 | 0.13 | 96 | 1008.3 |
| 20260904131415 | 37 | 215 | 0.0 | 0.0 | 0.06 | 0.21 | 0.13 | 96 | 1008.2 |
| 20260904130916 | 37 | 215 | 0.0 | 0.0 | 0.06 | 0.21 | 0.13 | 96 | 1008.2 |
| 20260904130417 | 37 | 215 | 0.0 | 0.0 | 0.06 | 0.21 | 0.13 | 96 | 1008.2 |
| 20260904125915 | 37 | 215 | 0.0 | 0.0 | 0.06 | 0.21 | 0.13 | 96 | 1008.2 |
| 20260904125416 | 37 | 215 | 0.0 | 0.0 | 0.07 | 0.21 | 0.13 | 96 | 1008.3 |
| 20260904124916 | 37 | 215 | 0.0 | 0.0 | 0.07 | 0.21 | 0.12 | 96 | 1008.2 |
| 20260904124417 | 37 | 215 | 0.0 | 0.0 | 0.07 | 0.21 | 0.12 | 95 | 1008.3 |
| 20260904123918 | 37 | 215 | 0.0 | 0.0 | 0.07 | 0.21 | 0.12 | 95 | 1008.3 |
| 20260904123416 | 37 | 215 | 0.0 | 0.0 | 0.07 | 0.21 | 0.12 | 95 | 1008.2 |
| 20260904122917 | 37 | 215 | 0.0 | 0.0 | 0.07 | 0.21 | 0.12 | 95 | 1008.2 |
| 20260904122417 | 37 | 215 | 0.0 | 0.0 | 0.07 | 0.21 | 0.12 | 95 | 1008.2 |
| 20260904121918 | 38 | 215 | 0.0 | 0.0 | 0.07 | 0.21 | 0.12 | 95 | 1008.2 |
| 20260904121419 | 38 | 215 | 0.0 | 0.0 | 0.07 | 0.21 | 0.12 | 94 | 1008.3 |
| 20260904120917 | 38 | 215 | 0.0 | 0.0 | 0.07 | 0.21 | 0.10 | 95 | 1008.5 |
| 20260904120418 | 38 | 215 | 0.0 | 0.0 | 0.07 | 0.21 | 0.08 | 95 | 1008.3 |
| 20260904115918 | 38 | 215 | 0.0 | 0.0 | 0.07 | 0.21 | 0.07 | 95 | 1008.3 |
| 20260904115419 | 38 | 215 | 0.0 | 0.0 | 0.00 | 0.21 | 0.05 | 95 | 1008.3 |
| 20260904114920 | 38 | 215 | 0.0 | 0.0 | 0.00 | 0.21 | 0.05 | 95 | 1008.3 |
| 20260904114418 | 38 | 215 | 0.0 | 0.0 | 0.00 | 0.21 | 0.03 | 94 | 1008.3 |
| 20260904113919 | 38 | 215 | 0.0 | 0.0 | 0.00 | 0.21 | 0.02 | 93 | 1008.2 |
| 20260904113419 | 38 | 215 | 0.0 | 0.0 | 0.00 | 0.21 | 0.01 | 93 | 1008.1 |
| 20260904112920 | 38 | 215 | 0.0 | 0.0 | 0.00 | 0.21 | 0.01 | 92 | 1008.1 |
| 20260904112421 | 38 | 215 | 0.0 | 0.0 | 0.00 | 0.21 | 0.01 | 91 | 1008.1 |
| 20260904111919 | 38 | 226 | 0.0 | 0.0 | 0.00 | 0.21 | 0.00 | 93 | 1008.1 |
| 20260904111419 | 38 | 226 | 0.0 | 0.0 | 0.00 | 0.21 | 0.00 | 92 | 1008.1 |
| 20260904110920 | 38 | 226 | 0.0 | 0.0 | 0.00 | 0.21 | 0.00 | 91 | 1008.0 |
| 20260904110421 | 38 | 226 | 0.0 | 0.0 | 0.00 | 0.21 | 0.00 | 90 | 1008.0 |
| 20260904105921 | 38 | 226 | 0.0 | 0.0 | 0.00 | 0.21 | 0.00 | 90 | 1007.9 |
| 20260904105419 | 38 | 226 | 0.0 | 0.0 | 0.00 | 0.21 | 0.00 | 89 | 1007.9 |
| 20260904104920 | 38 | 226 | 0.0 | 0.0 | 0.00 | 0.21 | 0.00 | 89 | 1007.7 |
| 20260904104421 | 38 | 226 | 0.0 | 0.0 | 0.00 | 0.21 | 0.00 | 89 | 1007.7 |
| 20260904103922 | 38 | 226 | 0.0 | 0.0 | 0.00 | 0.21 | 0.00 | 88 | 1007.6 |
| 20260904103422 | 38 | 226 | 0.0 | 0.0 | 0.00 | 0.21 | 0.00 | 88 | 1007.6 |
| 20260904102920 | 38 | 226 | 0.0 | 0.0 | 0.00 | 0.21 | 0.00 | 89 | 1007.7 |
| 20260904102421 | 38 | 226 | 0.0 | 0.0 | 0.00 | 0.21 | 0.00 | 89 | 1007.7 |
| 20260904101922 | 38 | 226 | 1.0 | 0.0 | 0.00 | 0.21 | 0.00 | 89 | 1007.7 |
| 20260904101423 | 38 | 208 | 0.0 | 0.0 | 0.00 | 0.21 | 0.00 | 90 | 1007.7 |
| 20260904100923 | 38 | 208 | 0.0 | 0.0 | 0.00 | 0.21 | 0.00 | 91 | 1007.7 |
| 20260904100421 | 38 | 208 | 0.0 | 0.0 | 0.00 | 0.21 | 0.00 | 90 | 1007.7 |
| 20260904095922 | 38 | 208 | 0.0 | 0.0 | 0.00 | 0.21 | 0.00 | 90 | 1007.7 |
| 20260904095423 | 38 | 148 | 0.0 | 2.0 | 0.00 | 0.21 | 0.00 | 92 | 1007.7 |
| 20260904094924 | 38 | 129 | 1.0 | 0.0 | 0.00 | 0.21 | 0.00 | 94 | 1007.7 |
| 20260904094424 | 38 | 253 | 0.0 | 0.0 | 0.00 | 0.21 | 0.00 | 95 | 1007.7 |
| 20260904093922 | 38 | 253 | 0.0 | 0.0 | 0.00 | 0.21 | 0.00 | 95 | 1007.9 |
| 20260904093423 | 38 | 253 | 0.0 | 0.0 | 0.00 | 0.21 | 0.00 | 94 | 1007.9 |
| 20260904092924 | 38 | 253 | 0.0 | 0.0 | 0.00 | 0.21 | 0.00 | 94 | 1007.7 |
| 20260904092425 | 38 | 253 | 0.0 | 0.0 | 0.00 | 0.21 | 0.00 | 94 | 1007.9 |
| 20260904091925 | 38 | 253 | 0.0 | 0.0 | 0.00 | 0.21 | 0.00 | 93 | 1007.7 |
| 20260904091423 | 38 | 253 | 0.0 | 0.0 | 0.00 | 0.21 | 0.00 | 93 | 1007.7 |
| 20260904090924 | 38 | 253 | 0.0 | 0.0 | 0.00 | 0.21 | 0.00 | 92 | 1007.6 |
| 20260904090425 | 38 | 253 | 0.0 | 0.0 | 0.00 | 0.21 | 0.00 | 93 | 1007.6 |
| 20260904085926 | 38 | 253 | 0.0 | 0.0 | 0.00 | 0.21 | 0.00 | 93 | 1007.9 |
| 20260904085427 | 38 | 253 | 0.0 | 0.0 | 0.00 | 0.21 | 0.00 | 92 | 1007.7 |
| 20260904084925 | 38 | 253 | 0.0 | 0.0 | 0.00 | 0.21 | 0.00 | 92 | 1007.9 |
| 20260904084426 | 38 | 238 | 1.0 | 0.0 | 0.00 | 0.21 | 0.00 | 92 | 1007.7 |
| 20260904083926 | 38 | 217 | 0.0 | 0.0 | 0.00 | 0.21 | 0.00 | 94 | 1007.7 |
| 20260904083427 | 38 | 217 | 0.0 | 0.0 | 0.00 | 0.21 | 0.00 | 93 | 1007.7 |
| 20260904082928 | 38 | 217 | 0.0 | 0.0 | 0.00 | 0.21 | 0.00 | 94 | 1007.7 |
| 20260904082426 | 38 | 314 | 0.0 | 0.0 | 0.00 | 0.21 | 0.00 | 95 | 1007.6 |
| 20260904081927 | 38 | 314 | 0.0 | 0.0 | 0.00 | 0.21 | 0.00 | 95 | 1007.6 |
| 20260904081428 | 38 | 314 | 0.0 | 0.0 | 0.00 | 0.21 | 0.00 | 95 | 1007.6 |
| 20260904080929 | 38 | 314 | 0.0 | 0.0 | 0.00 | 0.21 | 0.00 | 95 | 1007.6 |
| 20260904080429 | 38 | 314 | 0.0 | 0.0 | 0.00 | 0.21 | 0.00 | 95 | 1007.5 |
| 20260904075927 | 38 | 314 | 0.0 | 0.0 | 0.00 | 0.21 | 0.00 | 95 | 1007.6 |
| 20260904075428 | 38 | 314 | 0.0 | 0.0 | 0.00 | 0.21 | 0.00 | 95 | 1007.6 |
| 20260904074929 | 38 | 314 | 0.0 | 0.0 | 0.00 | 0.21 | 0.00 | 96 | 1007.7 |
| 20260904074430 | 38 | 314 | 0.0 | 0.0 | 0.00 | 0.21 | 0.00 | 96 | 1007.7 |
| 20260904073931 | 38 | 314 | 0.0 | 0.0 | 0.00 | 0.21 | 0.00 | 96 | 1007.6 |
| 20260904073429 | 38 | 314 | 0.0 | 0.0 | 0.00 | 0.21 | 0.00 | 95 | 1007.6 |
| 20260904072930 | 38 | 314 | 0.0 | 0.0 | 0.00 | 0.21 | 0.00 | 95 | 1007.6 |
| 20260904072431 | 38 | 314 | 0.0 | 0.0 | 0.00 | 0.21 | 0.00 | 95 | 1007.6 |
| 20260904071932 | 38 | 314 | 0.0 | 0.0 | 0.00 | 0.21 | 0.00 | 95 | 1007.5 |
| 20260904071433 | 38 | 314 | 0.0 | 0.0 | 0.00 | 0.21 | 0.00 | 95 | 1007.6 |
| 20260904070931 | 38 | 314 | 0.0 | 0.0 | 0.00 | 0.21 | 0.00 | 95 | 1007.6 |
| 20260904070431 | 38 | 314 | 0.0 | 0.0 | 0.00 | 0.21 | 0.00 | 95 | 1007.6 |
| 20260904065932 | 38 | 314 | 0.0 | 0.0 | 0.00 | 0.21 | 0.00 | 95 | 1007.5 |
| 20260904065433 | 38 | 314 | 0.0 | 0.0 | 0.01 | 1.12 | 0.21 | 95 | 1007.4 |
| 20260904064934 | 38 | 314 | 0.0 | 0.0 | 0.01 | 1.12 | 0.21 | 95 | 1007.4 |
| 20260904064432 | 38 | 314 | 0.0 | 0.0 | 0.01 | 1.12 | 0.21 | 95 | 1007.4 |
| 20260904063933 | 38 | 314 | 0.0 | 0.0 | 0.01 | 1.12 | 0.21 | 95 | 1007.5 |
| 20260904063434 | 37 | 314 | 0.0 | 0.0 | 0.01 | 1.12 | 0.21 | 95 | 1007.5 |
| 20260904062934 | 37 | 314 | 0.0 | 0.0 | 0.01 | 1.12 | 0.21 | 96 | 1007.6 |
| 20260904062435 | 37 | 314 | 0.0 | 0.0 | 0.01 | 1.12 | 0.21 | 96 | 1007.5 |
| 20260904061933 | 37 | 314 | 0.0 | 0.0 | 0.01 | 1.12 | 0.21 | 96 | 1007.5 |
| 20260904061434 | 37 | 314 | 0.0 | 0.0 | 0.01 | 1.12 | 0.21 | 96 | 1007.5 |
| 20260904060935 | 37 | 314 | 0.0 | 0.0 | 0.01 | 1.12 | 0.21 | 96 | 1007.6 |
| 20260904060436 | 37 | 314 | 0.0 | 0.0 | 0.01 | 1.12 | 0.21 | 96 | 1007.6 |
| 20260904055937 | 37 | 314 | 0.0 | 0.0 | 0.01 | 1.12 | 0.21 | 96 | 1007.7 |
| 20260904055435 | 38 | 314 | 0.0 | 0.0 | 0.03 | 1.12 | 0.21 | 96 | 1007.6 |
| 20260904054936 | 38 | 314 | 0.0 | 0.0 | 0.03 | 1.12 | 0.21 | 95 | 1007.7 |
| 20260904054437 | 38 | 314 | 0.0 | 0.0 | 0.03 | 1.12 | 0.21 | 95 | 1007.9 |
| 20260904053937 | 38 | 314 | 0.0 | 0.0 | 0.03 | 1.12 | 0.20 | 95 | 1008.0 |
| 20260904053438 | 38 | 314 | 0.0 | 0.0 | 0.03 | 1.12 | 0.20 | 95 | 1007.9 |
| 20260904052936 | 38 | 314 | 0.0 | 0.0 | 0.03 | 1.12 | 0.20 | 95 | 1007.7 |
| 20260904052437 | 38 | 314 | 0.0 | 0.0 | 0.03 | 1.12 | 0.20 | 95 | 1007.9 |
| 20260904051938 | 38 | 314 | 0.0 | 0.0 | 0.03 | 1.12 | 0.20 | 95 | 1007.7 |
| 20260904051439 | 38 | 291 | 0.0 | 0.0 | 0.03 | 1.12 | 0.20 | 95 | 1007.9 |
| 20260904050940 | 38 | 270 | 0.0 | 0.0 | 0.03 | 1.12 | 0.20 | 95 | 1007.7 |
| 20260904050437 | 38 | 252 | 0.0 | 0.0 | 0.03 | 1.12 | 0.20 | 95 | 1007.9 |
| 20260904045938 | 38 | 252 | 0.0 | 0.0 | 0.03 | 1.12 | 0.20 | 95 | 1008.0 |
| 20260904045439 | 38 | 211 | 1.0 | 0.0 | 0.01 | 1.12 | 0.20 | 95 | 1008.0 |
| 20260904044940 | 38 | 267 | 1.0 | 0.0 | 0.01 | 1.12 | 0.20 | 95 | 1007.9 |
| 20260904044441 | 38 | 276 | 0.0 | 2.0 | 0.01 | 1.12 | 0.20 | 95 | 1008.2 |
| 20260904043939 | 38 | 291 | 2.0 | 2.0 | 0.01 | 1.12 | 0.19 | 95 | 1008.1 |
| 20260904043439 | 38 | 218 | 0.0 | 0.0 | 0.01 | 1.12 | 0.19 | 95 | 1008.1 |
| 20260904042940 | 38 | 236 | 0.0 | 0.0 | 0.01 | 1.12 | 0.18 | 95 | 1008.1 |
| 20260904042441 | 38 | 301 | 2.0 | 3.0 | 0.01 | 1.12 | 0.18 | 95 | 1008.1 |
| 20260904041942 | 38 | 312 | 0.0 | 5.0 | 0.01 | 1.12 | 0.17 | 95 | 1008.2 |
| 20260904041440 | 39 | 267 | 1.0 | 3.0 | 0.01 | 1.12 | 0.17 | 95 | 1008.2 |
| 20260904040941 | 39 | 276 | 0.0 | 0.0 | 0.01 | 1.12 | 0.17 | 95 | 1008.3 |
| 20260904040442 | 39 | 302 | 1.0 | 3.0 | 0.01 | 1.12 | 0.17 | 95 | 1008.3 |
| 20260904035943 | 39 | 252 | 0.0 | 0.0 | 0.01 | 1.12 | 0.17 | 95 | 1008.2 |
| 20260904035444 | 39 | 239 | 3.0 | 0.0 | 0.04 | 1.12 | 0.17 | 95 | 1008.3 |
| 20260904034941 | 39 | 255 | 0.0 | 0.0 | 0.04 | 1.12 | 0.17 | 95 | 1008.3 |
| 20260904034442 | 39 | 280 | 0.0 | 0.0 | 0.04 | 1.12 | 0.17 | 95 | 1008.3 |
| 20260904033943 | 39 | 231 | 0.0 | 0.0 | 0.04 | 1.12 | 0.17 | 95 | 1008.5 |
| 20260904033444 | 39 | 257 | 0.0 | 0.0 | 0.04 | 1.12 | 0.17 | 95 | 1008.2 |
| 20260904032945 | 39 | 263 | 4.0 | 1.0 | 0.04 | 1.12 | 0.17 | 95 | 1008.2 |
| 20260904032443 | 39 | 293 | 0.0 | 1.0 | 0.04 | 1.12 | 0.17 | 95 | 1008.1 |
| 20260904031944 | 39 | 301 | 4.0 | 2.0 | 0.04 | 1.12 | 0.17 | 94 | 1007.9 |
| 20260904031445 | 39 | 281 | 2.0 | 6.0 | 0.04 | 1.12 | 0.17 | 94 | 1007.9 |
| 20260904030946 | 39 | 242 | 3.0 | 1.0 | 0.04 | 1.12 | 0.17 | 94 | 1008.0 |
| 20260904030447 | 39 | 304 | 3.0 | 3.0 | 0.04 | 1.12 | 0.17 | 94 | 1007.9 |
| 20260904025946 | 39 | 260 | 4.0 | 4.0 | 0.04 | 1.12 | 0.17 | 94 | 1007.9 |
| 20260904025447 | 39 | 297 | 2.0 | 4.0 | 0.00 | 1.12 | 0.16 | 93 | 1008.1 |
| 20260904024948 | 40 | 217 | 0.0 | 2.0 | 0.00 | 1.12 | 0.16 | 92 | 1008.1 |
| 20260904024448 | 40 | 293 | 1.0 | 5.0 | 0.00 | 1.12 | 0.16 | 91 | 1008.0 |
| 20260904023949 | 40 | 308 | 0.0 | 5.0 | 0.00 | 1.12 | 0.16 | 91 | 1008.1 |
| 20260904023448 | 40 | 257 | 0.0 | 2.0 | 0.00 | 1.12 | 0.16 | 91 | 1008.1 |
| 20260904022949 | 40 | 208 | 2.0 | 1.0 | 0.00 | 1.12 | 0.16 | 90 | 1008.1 |
| 20260904022450 | 41 | 293 | 0.0 | 3.0 | 0.00 | 1.12 | 0.16 | 90 | 1008.1 |
| 20260904021950 | 41 | 240 | 0.0 | 2.0 | 0.00 | 1.12 | 0.16 | 90 | 1008.1 |
| 20260904021451 | 41 | 349 | 0.0 | 0.0 | 0.00 | 1.12 | 0.13 | 89 | 1008.1 |
| 20260904020950 | 41 | 350 | 0.0 | 0.0 | 0.00 | 1.12 | 0.12 | 88 | 1008.0 |
| 20260904020450 | 41 | 349 | 1.0 | 1.0 | 0.00 | 1.12 | 0.12 | 87 | 1008.0 |
| 20260904015951 | 41 | 350 | 1.0 | 0.0 | 0.00 | 1.12 | 0.12 | 87 | 1008.0 |
| 20260904015452 | 41 | 295 | 0.0 | 0.0 | 0.01 | 1.12 | 0.12 | 87 | 1008.0 |
| 20260904014953 | 42 | 319 | 1.0 | 2.0 | 0.01 | 1.12 | 0.12 | 86 | 1008.0 |
| 20260904014451 | 42 | 273 | 0.0 | 0.0 | 0.01 | 1.12 | 0.12 | 86 | 1007.9 |
| 20260904013952 | 42 | 305 | 4.0 | 4.0 | 0.01 | 1.12 | 0.12 | 86 | 1007.9 |
| 20260904013453 | 42 | 273 | 2.0 | 3.0 | 0.01 | 1.12 | 0.12 | 87 | 1007.7 |
| 20260904012954 | 43 | 262 | 1.0 | 1.0 | 0.01 | 1.12 | 0.12 | 87 | 1007.7 |
| 20260904012455 | 42 | 297 | 0.0 | 3.0 | 0.01 | 1.12 | 0.12 | 87 | 1007.7 |
| 20260904011953 | 43 | 281 | 3.0 | 3.0 | 0.01 | 1.12 | 0.12 | 86 | 1007.6 |
| 20260904011454 | 43 | 270 | 2.0 | 1.0 | 0.01 | 1.12 | 0.12 | 85 | 1007.7 |
| 20260904010955 | 43 | 229 | 2.0 | 1.0 | 0.01 | 1.12 | 0.12 | 85 | 1007.6 |
| 20260904010456 | 43 | 323 | 3.0 | 5.0 | 0.01 | 1.12 | 0.12 | 85 | 1007.7 |
| 20260904005957 | 43 | 221 | 1.0 | 0.0 | 0.01 | 1.12 | 0.12 | 85 | 1007.7 |
| 20260904005455 | 43 | 235 | 2.0 | 1.0 | 0.00 | 1.12 | 0.12 | 83 | 1007.7 |
| 20260904004957 | 44 | 6 | 2.0 | 2.0 | 0.00 | 1.12 | 0.12 | 81 | 1007.7 |
| 20260904004457 | 44 | 235 | 1.0 | 1.0 | 0.00 | 1.12 | 0.11 | 79 | 1007.7 |
| 20260904003959 | 45 | 277 | 0.0 | 0.0 | 0.00 | 1.12 | 0.11 | 78 | 1007.6 |
| 20260904003459 | 45 | 228 | 4.0 | 1.0 | 0.00 | 1.12 | 0.11 | 76 | 1007.7 |
| 20260904002958 | 46 | 212 | 2.0 | 0.0 | 0.00 | 1.12 | 0.11 | 75 | 1007.6 |